When you browse on this site, cookies collect data to enhance your experience and personalize the content and advertising you see.
Visit our Privacy Policy to learn more. By continuing to use the site, you agree to this use of cookies and data.
  • en France
  • Liste des pays
  • À 7 jours
  • Température de l'eau
  • Carte météo
  • Widgets météo
  • user-avatar
    Se connecter

    Météo par heure à Kluczowa

    Ce jour, 20 Octobre, Dimanche

    Heure Température Précipitation Vent Pression Humidité
    00:00 +14°C° 0 mm 2 m/s 751 mmHg 89%
    01:00 +14°C° 0 mm 2 m/s 751 mmHg 88%
    02:00 +13°C° 0 mm 2 m/s 751 mmHg 88%
    03:00 +13°C° 0 mm 2 m/s 751 mmHg 89%
    04:00 +13°C° 0 mm 2 m/s 751 mmHg 89%
    05:00 +13°C° 0 mm 2 m/s 751 mmHg 88%
    06:00 +13°C° 0 mm 2 m/s 751 mmHg 87%
    07:00 +13°C° 0 mm 2 m/s 751 mmHg 87%
    08:00 +15°C° 0 mm 2 m/s 751 mmHg 79%
    09:00 +17°C° 0 mm 3 m/s 751 mmHg 71%
    10:00 +19°C° 0 mm 3 m/s 751 mmHg 64%
    11:00 +20°C° 0 mm 3 m/s 751 mmHg 60%
    12:00 +21°C° 0 mm 3 m/s 751 mmHg 56%
    13:00 +22°C° 0 mm 3 m/s 752 mmHg 53%
    14:00 +21°C° 0 mm 2 m/s 751 mmHg 55%
    15:00 +20°C° 0 mm 2 m/s 751 mmHg 58%
    16:00 +21°C° 0 mm 1 m/s 751 mmHg 61%
    17:00 +19°C° 0 mm 2 m/s 751 mmHg 64%
    18:00 +18°C° 0 mm 2 m/s 752 mmHg 68%
    19:00 +17°C° 0 mm 2 m/s 752 mmHg 71%
    20:00 +16°C° 0 mm 2 m/s 752 mmHg 73%
    21:00 +16°C° 0 mm 2 m/s 752 mmHg 74%
    22:00 +16°C° 0 mm 1 m/s 752 mmHg 76%
    23:00 +15°C° 0 mm 1 m/s 752 mmHg 76%

    Demain, 21 Octobre, Lundi

    Heure Température Précipitation Vent Pression Humidité
    00:00 +15°C° 0 mm 1 m/s 752 mmHg 77%
    01:00 +15°C° 0 mm 1 m/s 752 mmHg 77%
    02:00 +15°C° 0 mm 1 m/s 752 mmHg 78%
    03:00 +14°C° 0 mm 1 m/s 752 mmHg 80%
    04:00 +14°C° 0 mm 1 m/s 752 mmHg 81%
    05:00 +14°C° 0 mm 1 m/s 752 mmHg 81%
    06:00 +14°C° 0 mm 1 m/s 753 mmHg 81%
    07:00 +14°C° 0 mm 1 m/s 753 mmHg 82%
    08:00 +15°C° 0 mm 1 m/s 753 mmHg 75%
    09:00 +18°C° 0 mm 1 m/s 753 mmHg 69%
    10:00 +20°C° 0 mm 1 m/s 753 mmHg 63%
    11:00 +21°C° 0 mm 1 m/s 754 mmHg 59%
    12:00 +22°C° 0 mm 1 m/s 754 mmHg 56%
    13:00 +23°C° 0 mm 1 m/s 754 mmHg 53%
    14:00 +22°C° 0 mm 1 m/s 754 mmHg 56%
    15:00 +21°C° 0 mm 1 m/s 754 mmHg 59%
    16:00 +20°C° 0 mm 1 m/s 754 mmHg 63%
    17:00 +19°C° 0 mm 1 m/s 755 mmHg 66%
    18:00 +18°C° 0 mm 1 m/s 755 mmHg 69%
    19:00 +18°C° 0 mm 1 m/s 755 mmHg 72%
    20:00 +16°C° 0 mm 1 m/s 755 mmHg 74%
    21:00 +15°C° 0 mm 0 m/s 756 mmHg 76%
    22:00 +14°C° 0 mm 0 m/s 756 mmHg 78%
    23:00 +14°C° 0 mm 0 m/s 756 mmHg 79%

    Après-demain, 22 Octobre, Mardi

    Heure Température Précipitation Vent Pression Humidité
    00:00 +15°C° 0 mm 1 m/s 756 mmHg 80%
    01:00 +15°C° 0 mm 1 m/s 756 mmHg 81%
    02:00 +14°C° 0 mm 1 m/s 756 mmHg 82%
    03:00 +13°C° 0 mm 0 m/s 756 mmHg 83%
    04:00 +13°C° 0 mm 0 m/s 756 mmHg 84%
    05:00 +14°C° 0 mm 1 m/s 757 mmHg 83%
    06:00 +14°C° 0 mm 1 m/s 757 mmHg 83%
    07:00 +14°C° 0 mm 1 m/s 757 mmHg 83%
    08:00 +15°C° 0 mm 1 m/s 757 mmHg 77%
    09:00 +18°C° 0 mm 1 m/s 757 mmHg 71%
    10:00 +19°C° 0 mm 1 m/s 757 mmHg 65%
    11:00 +19°C° 0 mm 2 m/s 757 mmHg 63%
    12:00 +20°C° 0 mm 2 m/s 757 mmHg 60%
    13:00 +21°C° 0 mm 2 m/s 757 mmHg 57%
    14:00 +20°C° 0 mm 2 m/s 756 mmHg 62%
    15:00 +19°C° 0 mm 2 m/s 756 mmHg 66%
    16:00 +19°C° 0 mm 2 m/s 756 mmHg 70%
    17:00 +18°C° 0 mm 2 m/s 756 mmHg 75%
    18:00 +17°C° 0 mm 2 m/s 756 mmHg 79%
    19:00 +16°C° 0 mm 2 m/s 756 mmHg 84%
    20:00 +16°C° 0 mm 2 m/s 756 mmHg 85%
    21:00 +15°C° 0 mm 2 m/s 756 mmHg 85%
    22:00 +14°C° 0 mm 3 m/s 756 mmHg 86%
    23:00 +13°C° 0 mm 3 m/s 756 mmHg 85%

    23 Octobre, Mercredi

    Heure Température Précipitation Vent Pression Humidité
    00:00 +14°C° 0 mm 2 m/s 756 mmHg 84%
    01:00 +13°C° 0 mm 2 m/s 757 mmHg 82%
    02:00 +13°C° 0 mm 2 m/s 757 mmHg 84%
    03:00 +12°C° 0 mm 2 m/s 757 mmHg 85%
    04:00 +12°C° 0 mm 2 m/s 757 mmHg 86%
    05:00 +10°C° 0 mm 2 m/s 757 mmHg 88%
    06:00 +10°C° 0 mm 2 m/s 757 mmHg 89%
    07:00 +11°C° 0 mm 1 m/s 757 mmHg 91%
    08:00 +12°C° 0 mm 1 m/s 757 mmHg 84%
    09:00 +13°C° 0 mm 1 m/s 757 mmHg 78%
    10:00 +14°C° 0 mm 1 m/s 757 mmHg 72%
    11:00 +15°C° 0 mm 1 m/s 757 mmHg 68%
    12:00 +15°C° 0 mm 1 m/s 757 mmHg 65%
    13:00 +16°C° 0 mm 1 m/s 757 mmHg 61%
    14:00 +15°C° 0 mm 1 m/s 756 mmHg 63%
    15:00 +15°C° 0 mm 1 m/s 756 mmHg 66%
    16:00 +13°C° 0 mm 0 m/s 756 mmHg 68%
    17:00 +13°C° 0 mm 1 m/s 756 mmHg 71%
    18:00 +13°C° 0 mm 1 m/s 756 mmHg 74%
    19:00 +12°C° 0 mm 1 m/s 756 mmHg 77%
    20:00 +11°C° 0 mm 1 m/s 755 mmHg 79%
    21:00 +11°C° 0 mm 1 m/s 755 mmHg 81%
    22:00 +10°C° 0 mm 2 m/s 755 mmHg 82%
    23:00 +10°C° 0 mm 2 m/s 755 mmHg 84%

    24 Octobre, Jeudi

    Heure Température Précipitation Vent Pression Humidité
    00:00 +9°C° 0 mm 2 m/s 755 mmHg 86%
    01:00 +9°C° 0 mm 2 m/s 755 mmHg 87%
    02:00 +9°C° 0 mm 2 m/s 754 mmHg 88%
    03:00 +9°C° 0 mm 3 m/s 754 mmHg 88%
    04:00 +9°C° 0 mm 3 m/s 754 mmHg 88%
    05:00 +9°C° 0 mm 3 m/s 753 mmHg 88%
    06:00 +9°C° 0 mm 3 m/s 753 mmHg 88%
    07:00 +9°C° 0 mm 3 m/s 753 mmHg 88%
    08:00 +11°C° 0 mm 4 m/s 753 mmHg 82%
    09:00 +12°C° 0 mm 4 m/s 752 mmHg 76%
    10:00 +14°C° 0 mm 4 m/s 752 mmHg 70%
    11:00 +15°C° 0 mm 5 m/s 752 mmHg 68%
    12:00 +16°C° 0 mm 5 m/s 752 mmHg 65%
    13:00 +19°C° 0 mm 5 m/s 751 mmHg 63%
    14:00 +18°C° 0 mm 4 m/s 751 mmHg 67%
    15:00 +17°C° 0 mm 4 m/s 750 mmHg 70%
    16:00 +17°C° 0 mm 4 m/s 750 mmHg 74%
    17:00 +15°C° 0 mm 4 m/s 750 mmHg 78%
    18:00 +14°C° 0 mm 4 m/s 750 mmHg 82%
    19:00 +14°C° 0 mm 4 m/s 750 mmHg 86%
    20:00 +13°C° 0 mm 4 m/s 750 mmHg 87%
    21:00 +13°C° 0 mm 3 m/s 750 mmHg 89%
    22:00 +13°C° 0 mm 3 m/s 750 mmHg 90%
    23:00 +13°C° 0 mm 3 m/s 750 mmHg 89%

    25 Octobre, Vendredi

    Heure Température Précipitation Vent Pression Humidité
    00:00 +12°C° 0 mm 3 m/s 750 mmHg 89%
    01:00 +12°C° 0 mm 3 m/s 750 mmHg 88%
    02:00 +13°C° 0 mm 2 m/s 750 mmHg 86%
    03:00 +13°C° 0 mm 2 m/s 750 mmHg 85%
    04:00 +12°C° 0 mm 2 m/s 750 mmHg 84%
    05:00 +12°C° 0 mm 2 m/s 750 mmHg 82%
    06:00 +12°C° 0 mm 2 m/s 750 mmHg 81%
    07:00 +12°C° 0 mm 2 m/s 750 mmHg 80%
    08:00 +14°C° 0 mm 2 m/s 750 mmHg 73%
    09:00 +16°C° 0 mm 2 m/s 751 mmHg 66%
    10:00 +17°C° 0 mm 2 m/s 751 mmHg 58%
    11:00 +18°C° 0 mm 2 m/s 751 mmHg 55%
    12:00 +19°C° 0 mm 2 m/s 751 mmHg 52%
    13:00 +20°C° 0 mm 2 m/s 751 mmHg 49%
    14:00 +20°C° 0 mm 1 m/s 751 mmHg 52%
    15:00 +19°C° 0 mm 1 m/s 751 mmHg 56%
    16:00 +18°C° 0 mm 1 m/s 751 mmHg 60%
    17:00 +16°C° 0 mm 0 m/s 751 mmHg 63%
    18:00 +15°C° 0 mm 0 m/s 752 mmHg 66%
    19:00 +14°C° 0 mm 0 m/s 752 mmHg 68%
    20:00 +14°C° 0 mm 0 m/s 752 mmHg 70%
    21:00 +13°C° 0 mm 0 m/s 753 mmHg 72%
    22:00 +13°C° 0 mm 0 m/s 753 mmHg 74%
    23:00 +12°C° 0 mm 0 m/s 753 mmHg 76%
    Voir plus